Regional Weather Roundup
Issued by NWS

Home | Current Version | Previous Version | Graphics & Text | Print | Product List | Glossary On
Versions: 1 2 3 4 5 6 7 8 9 10 11 12 13 14 15 16 17 18 19 20 21 22 23 24 25 26 27 28 29 30 31 32 33 34 35 36 37 38 39 40 41 42 43 44 45 46 47 48 49 50
000
ASUS43 KLOT 230558
RWRIL

ILLINOIS REGIONAL WEATHER ROUNDUP
NATIONAL WEATHER SERVICE CHICAGO/ROMEOVILLE IL
100 AM CDT WED JUL 23 2014

NOTE: "FAIR" INDICATES FEW OR NO CLOUDS BELOW 12,000 FEET WITH NO
SIGNIFICANT WEATHER AND/OR OBSTRUCTIONS TO VISIBILITY.

* THESE STATIONS ARE NOT UNDER NWS QUALITY CONTROL. THEY ALSO MAY NOT
  REPORT WEATHER SUCH AS PRECIPITATION OR FOG.

ILZ001-002-007-009-015-016-024-230700-
NORTHWEST ILLINOIS

CITY           SKY/WX    TMP DP  RH WIND       PRES   REMARKS
MOLINE         CLEAR     78  69  73 N6        30.04R HX  80
6HR MIN TEMP:  78; 6HR MAX TEMP:  85;

$$

ILZ003-004-008-010-011-017-018-230700-
NORTH CENTRAL ILLINOIS

CITY           SKY/WX    TMP DP  RH WIND       PRES   REMARKS
ROCKFORD       NOT AVBL
$$

ILZ005-006-012>014-019>023-230700-
NORTHEAST ILLINOIS

CITY           SKY/WX    TMP DP  RH WIND       PRES   REMARKS
CHICAGO-OHARE  CLOUDY    74  63  68 NE18G24   30.02R
6HR MIN TEMP:  74; 6HR MAX TEMP:  87; 6HR PCP:  0.01;

CHICAGO-MIDWAY CLOUDY    77  71  82 NE16      30.01R
6HR MIN TEMP:  76; 6HR MAX TEMP:  88; 6HR PCP:  0.19;

AURORA         MOCLDY    78  69  73 N9        30.01R HX  80
6HR MIN TEMP:  78; 6HR MAX TEMP:  86;

WAUKEGAN       MOCLDY    66  61  84 N17G26    30.03R
6HR MIN TEMP:  66; 6HR MAX TEMP:  86; 6HR PCP:  0.05;

DUPAGE AIRPORT CLOUDY    75  66  73 NE13      30.01R
6HR MIN TEMP:  75; 6HR MAX TEMP:  86; 6HR PCP:  0.16;

WHEELING       CLOUDY    73  65  75 NE17G32   30.04R
6HR MIN TEMP:  73; 6HR MAX TEMP:  88; 6HR PCP:  0.02;

NORTHERLY ISL    N/A     71  68  90 N12         N/A
$$

LMZ740>746-230700-
SOUTHERN LAKE MICHIGAN

STATION/POSITION SKY/WX   TEMP    WIND        PRES    VSBY  WAVE
                          AIR SEA DIR/SP/G                  HT/PER
                          (F)     (DEG/KT/KT) (MB)    (MI)  (FT/S)
SOUTHERN BUOY              68 65  360/ 23/ 29 1015.1R         2/ 3
WAUKEGAN HARBOR            67      20/ 26/ 30 1017.3R
HARRISON CRIB              72      60/ 10/ 14   N/A
BURNHAM HARBOR             70     360/ 11/ 18   N/A
CALUMET HARBOR             70      30/  6/  8 1015.1R
BURNS HARBOR               77      10/ 19/ 22 1016.3R
MICHIGAN CITY              79     180/  9/ 12   N/A
$$

ILZ025>027-034>036-040-047-049-050-058-095>099-230700-
WEST-CENTRAL ILLINOIS

CITY           SKY/WX    TMP DP  RH WIND       PRES   REMARKS
$$

ILZ028>032-037-038-041>044-048-051>054-059>061-230700-
CENTRAL ILLINOIS

CITY           SKY/WX    TMP DP  RH WIND       PRES   REMARKS
PEORIA         NOT AVBL
SPRINGFIELD    MOCLDY    79  72  79 CALM      30.01S HX  82
6HR MIN TEMP:  79; 6HR MAX TEMP:  84;

TAYLORVILLE    NOT AVBL
$$

ILZ033-039-045-046-055>057-062-063-230700-
EAST-CENTRAL ILLINOIS

CITY           SKY/WX    TMP DP  RH WIND       PRES   REMARKS
CHAMPAIGN      MOCLDY    75  69  81 SW7       30.02R
MATTOON        MOCLDY    76  68  76 SW7       30.01S
$$

ILZ079-100>102-230700-
SOUTHWEST ILLINOIS

CITY           SKY/WX    TMP DP  RH WIND       PRES   REMARKS
CAHOKIA*       MOCLDY    79  70  74 CALM      30.01S HX  82
$$

ILZ064>066-069>071-074>076-080>082-084>086-088>090-092>094-230700-
SOUTH-CENTRAL ILLINOIS

CITY           SKY/WX    TMP DP  RH WIND       PRES   REMARKS
CARBONDALE     PTCLDY    71  68  90 CALM      30.04S
6HR MIN TEMP:  71; 6HR MAX TEMP:  85;

$$

ILZ067-068-072-073-078-083-087-091-230700-
SOUTHEAST ILLINOIS

CITY           SKY/WX    TMP DP  RH WIND       PRES   REMARKS
$$

ABBREVIATIONS USED IN REMARKS
   TC - TEMPERATURE IN CELSIUS
  WCI - WIND CHILL INDEX
   HX - HEAT INDEX
  VSB - VISIBILITY
$$




USA.gov is the U.S. government's official web portal to all federal, state and local government web resources and services.